NOAA 16 DEB, 42399

Orbit data source: Space-Track

NOAA 16 DEB, 42399 is space debris in SSO originally from a launch on Thu, 21 Sep 2000 UTC launched from the Air Force Western Test Range (AFWTR). Debris objects in space refer to the collection of defunct objects orbiting the Earth. Examples of debris include non-operational satellites, rocket bodies, and fragments generated from explosions, collisions, or faulty payload assembly.

Loading next visibility...
Identifier
42399, 2000-055ST
Orbit
SSO
Country
Flag of USUS
Related business
Manufacturer
Unknown
Mission
Spacecraft
Bus & Motor
Unknown
Mass
Unknown
Launch date (UTC)
2000-09-21 (26 years ago)
Launch vehicle
Unknown
Launch site
Air Force Western Test Range (AFWTR)
Object type
Payload
Rocket body
Debris
Shape & HBR
Unknown shape, 0.1 m
Radar Cross Section
Medium (>0.1 m² and <1 m²)

Expand to show TLE details & history
Last TLE update: 12 hours ago

TLE from 12 hours ago
0 NOAA 16 DEB
1 42399U 00055ST  26178.00930327  .00003059  00000-0  12668-2 0  9997
2 42399  98.6638 246.7372 0009943   9.0300 351.1058 14.27302265530280
Epoch: 2026-06-27T00:13Z
TLE epoch observation values (Epoch: 2026-06-27T00:13:23.802Z)
Latitude
Longitude
-31.74159°
Altitude
796.635 km
Speed
7.459 km/s
True Right ascension
16h 26m 56s
True Declination
0° 00' 00"
Sunlit
Object was in full shadow at epoch
Visualization orbit readout
Latitude
Unknown
Longitude
Unknown
Altitude
Unknown
Speed
Unknown
Apparent Right ascension
Unknown
Apparent Declination
Unknown
Sunlit
N/A
Visualization observer readout
Local Sidereal Time
23:48:59
Azimuth
Unknown
Elevation
Unknown
Doppler factor
Unknown
Orbital elements
Apogee altitude
805.044 km
Perigee altitude
790.774 km
Semi-major axis
7,176.046 km
Eccentricity
0.00099
Inclination
98.6638°
RAAN
246.7372°
Arg. of periapsis
9.03°
True anomaly
351.08816°
Mean anomaly
351.1058°
Eccentric anomaly
351.09698°
Mean motion
3.57039 °/min
Orbital period
100.83 mins
BSTAR
0.0012668
Loading maneuver chart data...
Computing Atmospheric mass density...
Loading historical data...
Loading historical data...
Loading historical data...
Loading historical data...
Loading historical data...
Loading historical data...
Loading historical data...

Documentation

Showing up to 5 results
|